User: anonymous   Login
Location: Ostrava
(49.8330°N, 18.2830°E)
Time: 00:23:35
(UTC+01:00)
Language:

Iridium 7 - Orbit

View from above orbital plane
View from above orbital plane
View from above satellite
View from above satellite

Ground track
Ground track

The orbit data is extracted from the following two-line orbital elements,

1 24793U 97020B   17017.46041349 -.00000079  00000-0 -35265-4 0  9993
2 24793  86.3948  21.9743 0002023  86.0447 274.0980 14.34217275 31591
Epoch (UTC): 17 January 2017 11:02:59
Eccentricity: 0.0002023
inclination: 86.3948°
perigee height: 776 km
apogee height: 779 km
right ascension of ascending node: 21.9743°
argument of perigee: 86.0447°
revolutions per day: 14.34217275
mean anomaly at epoch: 274.0980°
orbit number at epoch: 3159

The dashed part of the orbit path shows where the satellite is in the earth's shadow,  

DLR